GW4034 Weather Reports


Display with metric or nautical units.
time (UTC)temp
F
wind
direction
speed
MPH
gust
MPH
rain 1hr
in
rain 24hr
in
rain mn
in
humidity
%
barometer
mb
20260509200621 56 171 0.0 0.0 0.05 0.19 0.19 93 1016.3
20260509200116 57 157 1.0 2.0 0.00 0.18 0.18 92 1016.3
20260509195612 57 187 0.0 0.0 0.00 0.18 0.18 93 1016.2
20260509195102 57 195 1.0 1.0 0.00 0.18 0.18 92 1015.6
20260509194601 57 166 0.0 0.0 0.00 0.18 0.18 92 1015.4
20260509194059 57 132 2.0 2.0 0.00 0.18 0.18 92 1015.1
20260509193554 57 149 2.0 2.0 0.07 0.18 0.18 92 1015.0
20260509193045 57 132 1.0 2.0 0.07 0.18 0.18 92 1015.7
20260509192542 57 208 1.0 1.0 0.05 0.17 0.17 92 1016.4
20260509192037 57 178 0.0 0.0 0.12 0.17 0.17 92 1016.1
20260509191537 57 153 0.0 0.0 0.12 0.16 0.16 92 1016.2
20260509191033 57 173 0.0 0.0 0.12 0.15 0.15 91 1016.3
20260509190530 57 192 0.0 1.0 0.07 0.14 0.14 91 1016.6
20260509190028 57 192 1.0 1.0 0.05 0.13 0.13 91 1016.4
20260509185525 57 180 0.0 0.0 0.19 0.13 0.13 90 1016.0
20260509185021 57 151 1.0 1.0 0.50 0.12 0.12 89 1016.0
20260509184520 57 193 1.0 1.0 0.40 0.10 0.10 88 1016.2
20260509184010 57 264 2.0 2.0 0.05 0.04 0.04 87 1016.5
20260509183505 58 302 3.0 3.0 0.00 0.03 0.03 86 1016.5
20260509183002 58 183 0.0 0.0 0.07 0.03 0.03 86 1016.3
20260509182458 57 161 0.0 0.0 0.19 0.03 0.03 84 1016.3
20260509181955 58 193 0.0 0.0 0.12 0.02 0.02 83 1016.0
20260509181454 58 161 0.0 1.0 0.00 0.00 0.00 81 1015.9
20260509180950 57 171 0.0 0.0 0.00 0.00 0.00 80 1015.5
20260509180445 57 178 1.0 1.0 0.00 0.00 0.00 80 1015.4
20260509175942 58 131 2.0 3.0 0.00 0.00 0.00 78 1015.5
20260509175439 58 166 2.0 2.0 0.00 0.00 0.00 77 1015.4
20260509174930 59 138 1.0 2.0 0.00 0.00 0.00 76 1015.5
20260509174426 59 157 1.0 2.0 0.00 0.00 0.00 76 1015.6
20260509173921 59 136 3.0 4.0 0.00 0.00 0.00 74 1015.6
20260509173415 60 138 2.0 3.0 0.00 0.00 0.00 73 1015.6
20260509172912 61 158 0.0 0.0 0.00 0.00 0.00 72 1015.4
20260509172409 62 124 4.0 6.0 0.00 0.00 0.00 70 1015.4
20260509171905 62 124 4.0 6.0 0.00 0.00 0.00 70 1015.4
20260509171401 63 160 0.0 1.0 0.00 0.00 0.00 70 1015.3
20260509170857 63 129 4.0 4.0 0.00 0.00 0.00 68 1015.5
20260509170353 64 189 1.0 2.0 0.00 0.00 0.00 69 1015.4
20260509165848 63 108 2.0 2.0 0.00 0.00 0.00 69 1015.6
20260509165343 63 129 5.0 6.0 0.00 0.00 0.00 69 1015.6
20260509164838 64 166 1.0 2.0 0.00 0.00 0.00 69 1015.5
20260509164329 64 173 1.0 1.0 0.00 0.00 0.00 69 1015.7
20260509163826 63 124 2.0 3.0 0.00 0.00 0.00 70 1015.8
20260509163322 65 131 5.0 7.0 0.00 0.00 0.00 67 1015.8
20260509162821 64 201 0.0 1.0 0.00 0.00 0.00 69 1016.1
20260509162314 63 224 1.0 1.0 0.00 0.00 0.00 69 1016.3
20260509161811 63 237 1.0 1.0 0.00 0.00 0.00 69 1016.2
20260509161307 64 144 0.0 2.0 0.00 0.00 0.00 70 1016.5
20260509160802 63 291 3.0 3.0 0.00 0.00 0.00 69 1016.6
20260509160259 63 164 0.0 0.0 0.00 0.00 0.00 69 1016.7
20260509155754 62 133 2.0 3.0 0.00 0.00 0.00 71 1016.7
20260509155251 62 183 1.0 1.0 0.00 0.00 0.00 71 1016.7
20260509154747 62 191 1.0 1.0 0.00 0.00 0.00 71 1016.7
20260509154244 62 162 0.0 0.0 0.00 0.00 0.00 71 1016.7
20260509153741 61 234 1.0 1.0 0.00 0.00 0.00 72 1016.6
20260509153237 61 187 0.0 0.0 0.00 0.00 0.00 73 1016.6
20260509152734 60 178 0.0 1.0 0.00 0.00 0.00 75 1016.8
20260509152230 60 209 1.0 1.0 0.00 0.00 0.00 74 1016.9
20260509151727 60 174 0.0 0.0 0.00 0.00 0.00 74 1016.9
20260509151224 60 153 2.0 2.0 0.00 0.00 0.00 75 1016.9
20260509150721 60 128 4.0 4.0 0.00 0.00 0.00 75 1016.9
20260509150220 60 226 2.0 2.0 0.00 0.00 0.00 73 1016.8
20260509145716 60 177 0.0 0.0 0.00 0.00 0.00 73 1016.7
20260509145211 60 200 0.0 0.0 0.00 0.00 0.00 73 1016.9
20260509144708 60 126 2.0 3.0 0.00 0.00 0.00 74 1016.7
20260509144205 60 234 1.0 1.0 0.00 0.00 0.00 73 1017.0
20260509143702 60 146 1.0 1.0 0.00 0.00 0.00 74 1016.9
20260509143159 60 133 1.0 2.0 0.00 0.00 0.00 73 1017.0
20260509142655 59 183 0.0 0.0 0.00 0.00 0.00 77 1016.8
20260509142152 58 94 0.0 1.0 0.00 0.00 0.00 77 1016.8
20260509141647 57 120 0.0 0.0 0.00 0.00 0.00 78 1016.8
20260509141144 57 96 1.0 1.0 0.00 0.00 0.00 79 1016.8
20260509140641 58 93 1.0 1.0 0.00 0.00 0.00 78 1017.0
20260509140139 58 190 1.0 1.0 0.00 0.00 0.00 77 1017.0
20260509135636 57 137 1.0 1.0 0.00 0.00 0.00 78 1016.8
20260509135134 57 106 1.0 2.0 0.00 0.00 0.00 80 1016.6
20260509134630 58 92 2.0 2.0 0.00 0.00 0.00 78 1016.9
20260509134128 57 137 1.0 1.0 0.00 0.00 0.00 82 1016.9
20260509133625 55 154 2.0 2.0 0.00 0.00 0.00 83 1016.8
20260509133122 56 154 2.0 2.0 0.00 0.00 0.00 82 1017.0
20260509132620 56 103 2.0 3.0 0.00 0.00 0.00 84 1016.9
20260509132118 55 140 2.0 3.0 0.00 0.00 0.00 84 1017.0
20260509131614 55 147 1.0 1.0 0.00 0.00 0.00 85 1017.1
20260509131111 54 173 0.0 1.0 0.00 0.00 0.00 86 1017.1
20260509130607 54 134 2.0 3.0 0.00 0.00 0.00 86 1017.2
20260509130104 54 149 2.0 3.0 0.00 0.00 0.00 87 1017.5
20260509125600 54 124 1.0 2.0 0.00 0.00 0.00 87 1017.3
20260509125057 53 175 0.0 0.0 0.00 0.00 0.00 88 1017.4
20260509124553 53 84 3.0 4.0 0.00 0.00 0.00 88 1017.2
20260509124051 53 176 0.0 1.0 0.00 0.00 0.00 89 1016.7
20260509123549 53 151 0.0 1.0 0.00 0.00 0.00 89 1017.4
20260509123045 53 141 0.0 1.0 0.00 0.00 0.00 89 1017.6
20260509122541 53 142 1.0 2.0 0.00 0.00 0.00 89 1017.7
20260509122038 53 141 2.0 2.0 0.00 0.00 0.00 89 1017.8
20260509121534 53 129 1.0 1.0 0.00 0.00 0.00 89 1017.6
20260509121032 53 145 1.0 1.0 0.00 0.00 0.00 89 1017.6
20260509120531 52 131 1.0 1.0 0.00 0.00 0.00 89 1017.6
20260509120028 52 138 1.0 1.0 0.00 0.00 0.00 88 1017.7
20260509115525 52 155 0.0 1.0 0.00 0.00 0.00 88 1017.8
20260509115023 52 158 0.0 0.0 0.00 0.00 0.00 88 1017.6
20260509114521 52 155 0.0 0.0 0.00 0.00 0.00 88 1017.6
20260509114020 52 126 0.0 1.0 0.00 0.00 0.00 88 1017.8
20260509113517 52 162 0.0 0.0 0.00 0.00 0.00 89 1017.8
20260509113015 52 95 2.0 3.0 0.00 0.00 0.00 89 1017.3
20260509112511 52 125 0.0 0.0 0.00 0.00 0.00 89 1017.9
20260509112008 52 114 1.0 2.0 0.00 0.00 0.00 89 1017.4
20260509111505 51 138 0.0 1.0 0.00 0.00 0.00 89 1017.6
20260509111002 51 112 1.0 1.0 0.00 0.00 0.00 89 1017.7
20260509110458 51 134 0.0 1.0 0.00 0.00 0.00 89 1017.4
20260509105956 51 96 2.0 2.0 0.00 0.00 0.00 89 1017.5
20260509105454 51 138 0.0 0.0 0.00 0.00 0.00 89 1017.6
20260509104951 51 144 0.0 0.0 0.00 0.00 0.00 89 1017.5
20260509104448 51 136 0.0 1.0 0.00 0.00 0.00 89 1017.3
20260509103945 50 143 0.0 0.0 0.00 0.00 0.00 90 1017.5
20260509103443 50 145 1.0 1.0 0.00 0.00 0.00 90 1017.4
20260509102941 50 145 0.0 0.0 0.00 0.00 0.00 90 1017.1
20260509102438 50 147 0.0 0.0 0.00 0.00 0.00 90 1017.1
20260509101934 50 88 1.0 2.0 0.00 0.00 0.00 90 1017.0
20260509101430 50 157 0.0 1.0 0.00 0.00 0.00 90 1017.0
20260509100928 50 149 0.0 0.0 0.00 0.00 0.00 90 1017.1
20260509100425 50 154 0.0 0.0 0.00 0.00 0.00 90 1017.0
20260509095921 50 162 0.0 0.0 0.00 0.00 0.00 90 1017.1
20260509095419 50 167 0.0 0.0 0.00 0.00 0.00 90 1017.3
20260509094916 50 155 0.0 0.0 0.00 0.00 0.00 90 1017.2
20260509094412 50 152 0.0 0.0 0.00 0.00 0.00 90 1017.0
20260509093910 50 167 0.0 0.0 0.00 0.00 0.00 90 1016.9
20260509093407 50 181 0.0 0.0 0.00 0.00 0.00 90 1016.9
20260509092906 50 181 0.0 0.0 0.00 0.00 0.00 90 1017.0
20260509092403 50 162 0.0 0.0 0.00 0.00 0.00 90 1016.8
20260509091901 50 181 0.0 0.0 0.00 0.00 0.00 90 1017.0
20260509091358 50 162 0.0 0.0 0.00 0.00 0.00 89 1017.0
20260509090855 50 203 0.0 1.0 0.00 0.00 0.00 89 1017.0
20260509090352 50 165 0.0 0.0 0.00 0.00 0.00 89 1017.0
20260509085850 50 164 0.0 0.0 0.00 0.00 0.00 89 1017.1
20260509085346 50 151 0.0 0.0 0.00 0.00 0.00 89 1017.1
20260509084843 50 160 0.0 0.0 0.00 0.00 0.00 89 1017.1
20260509084340 50 154 0.0 0.0 0.00 0.00 0.00 89 1017.2
20260509083838 50 144 0.0 0.0 0.00 0.00 0.00 89 1017.1
20260509083334 50 167 0.0 0.0 0.00 0.00 0.00 90 1017.3
20260509082831 50 166 0.0 0.0 0.00 0.00 0.00 90 1017.4
20260509082327 50 167 0.0 0.0 0.00 0.00 0.00 89 1017.5
20260509081825 50 166 0.0 0.0 0.00 0.00 0.00 89 1017.4
20260509081322 50 166 0.0 0.0 0.00 0.00 0.00 89 1017.4
20260509080820 50 175 0.0 0.0 0.00 0.00 0.00 89 1017.3
20260509080318 50 178 0.0 0.0 0.00 0.00 0.00 89 1017.5
20260509075816 50 201 0.0 1.0 0.00 0.00 0.00 89 1017.3
20260509075312 50 183 0.0 0.0 0.00 0.00 0.00 89 1017.3
20260509074809 50 183 0.0 0.0 0.00 0.00 0.00 89 1017.2
20260509074307 50 183 0.0 0.0 0.00 0.00 0.00 89 1017.3
20260509073803 50 158 0.0 0.0 0.00 0.00 0.00 89 1017.3
20260509073259 50 160 0.0 0.0 0.00 0.00 0.00 89 1017.2
20260509072756 50 165 0.0 0.0 0.00 0.00 0.00 89 1017.2
20260509072253 50 160 0.0 0.0 0.00 0.00 0.00 89 1017.0
20260509071750 50 181 0.0 0.0 0.00 0.00 0.00 89 1017.0
20260509071247 51 184 0.0 0.0 0.00 0.00 0.00 89 1017.1
20260509070744 50 184 0.0 0.0 0.00 0.00 0.00 89 1017.2
20260509070240 50 184 0.0 0.0 0.00 0.00 0.00 88 1017.4
20260509065737 50 185 0.0 0.0 0.00 0.00 0.00 88 1017.2
20260509065233 50 185 0.0 0.0 0.00 0.00 0.00 87 1017.4
20260509064729 50 185 0.0 0.0 0.00 0.00 0.00 87 1017.3
20260509064227 50 185 0.0 0.0 0.00 0.00 0.00 87 1017.2
20260509063724 50 185 0.0 0.0 0.00 0.00 0.00 86 1017.3
20260509041101 52 195 0.0 0.0 0.00 0.00 0.00 77 1017.7
20260509040600 52 195 0.0 0.0 0.00 0.00 0.00 77 1017.7
20260509040056 53 195 0.0 0.0 0.00 0.01 0.01 75 1018.0
20260509035553 53 195 0.0 0.0 0.00 0.01 0.01 75 1018.0
20260509035049 53 195 0.0 0.0 0.00 0.01 0.01 75 1018.0
20260509032449 54 192 0.0 0.0 0.00 0.01 0.01 73 1018.1
20260509031947 54 192 0.0 0.0 0.00 0.01 0.01 73 1018.1
20260509031443 54 180 0.0 0.0 0.00 0.01 0.01 72 1018.0
20260509030941 54 185 0.0 0.0 0.00 0.01 0.01 71 1018.0
20260509030439 54 185 0.0 0.0 0.00 0.01 0.01 71 1018.1
20260509025936 54 189 0.0 0.0 0.00 0.01 0.01 71 1017.8
20260509025431 54 182 0.0 0.0 0.00 0.01 0.01 71 1018.0
20260509024927 54 188 0.0 0.0 0.00 0.01 0.01 71 1018.1
20260509024423 54 180 0.0 0.0 0.00 0.01 0.01 71 1018.0
20260509023920 54 213 1.0 1.0 0.00 0.01 0.01 71 1017.8
20260509023417 54 184 0.0 1.0 0.00 0.01 0.01 71 1017.8
20260509022914 54 184 0.0 0.0 0.00 0.01 0.01 72 1017.7
20260509022411 54 180 0.0 0.0 0.00 0.01 0.01 71 1017.7
20260509021908 54 181 0.0 0.0 0.00 0.01 0.01 71 1017.9
20260509021405 53 181 0.0 0.0 0.00 0.01 0.01 72 1017.7
20260509020903 53 191 0.0 1.0 0.00 0.01 0.01 73 1017.9
20260509020401 53 176 0.0 0.0 0.00 0.01 0.01 74 1017.5
20260509015857 53 176 0.0 0.0 0.00 0.01 0.01 74 1017.7
20260509015356 53 176 0.0 0.0 0.00 0.01 0.01 74 1017.7
20260509014852 52 164 0.0 0.0 0.00 0.01 0.01 73 1017.6
20260509014349 52 163 0.0 0.0 0.00 0.01 0.01 74 1017.2
20260509013846 52 201 0.0 0.0 0.00 0.01 0.01 74 1017.3
20260509013342 52 201 0.0 0.0 0.00 0.01 0.01 74 1017.1
20260509012838 52 201 0.0 0.0 0.00 0.01 0.01 74 1017.2
20260509012335 52 201 0.0 0.0 0.00 0.01 0.01 73 1017.0
20260509011833 52 201 0.0 0.0 0.00 0.01 0.01 73 1017.1
20260509011330 52 201 0.0 0.0 0.00 0.01 0.01 73 1017.0
20260509010827 53 201 0.0 0.0 0.00 0.01 0.01 72 1016.8
20260509010324 52 201 0.0 0.0 0.00 0.01 0.01 72 1016.8
20260509005821 52 201 0.0 0.0 0.00 0.01 0.01 72 1016.7
20260509005320 52 201 0.0 0.0 0.00 0.01 0.01 71 1016.6
20260509004819 53 201 0.0 0.0 0.00 0.01 0.01 71 1016.6
20260509004315 53 201 0.0 0.0 0.00 0.01 0.01 70 1016.5
20260509003814 53 201 0.0 0.0 0.00 0.01 0.01 69 1016.4
20260509003312 53 201 0.0 0.0 0.00 0.01 0.01 68 1016.4
20260509002808 53 201 0.0 0.0 0.00 0.01 0.01 67 1016.2
20260509002306 53 201 0.0 0.0 0.00 0.01 0.01 65 1016.3
20260509001804 54 201 0.0 0.0 0.00 0.01 0.01 63 1016.4
20260509001259 55 201 0.0 0.0 0.00 0.01 0.01 62 1016.6
20260509000757 55 201 0.0 0.0 0.00 0.01 0.01 61 1016.5
20260509000256 56 201 0.0 0.0 0.00 0.01 0.01 60 1016.6
20260508235751 56 200 0.0 0.0 0.00 0.01 0.01 59 1016.3
20260508235242 57 216 1.0 1.0 0.00 0.01 0.01 58 1016.4
20260508234740 57 233 1.0 1.0 0.00 0.01 0.01 58 1016.3
20260508234235 57 198 0.0 1.0 0.00 0.01 0.01 57 1016.3
20260508233729 58 196 0.0 1.0 0.00 0.01 0.01 56 1016.2
20260508233227 58 218 1.0 1.0 0.00 0.01 0.01 55 1016.3
20260508232724 58 239 1.0 1.0 0.00 0.01 0.01 56 1016.1
20260508232221 58 245 2.0 2.0 0.00 0.01 0.01 55 1016.3
20260508231719 58 201 0.0 0.0 0.00 0.01 0.01 55 1016.2
20260508231215 58 243 1.0 1.0 0.00 0.01 0.01 55 1016.0
20260508230712 58 353 2.0 2.0 0.00 0.01 0.01 55 1015.9
20260508230208 58 206 0.0 1.0 0.00 0.01 0.01 55 1016.0
20260508225706 58 167 0.0 1.0 0.00 0.01 0.01 55 1015.8
20260508225202 58 246 2.0 2.0 0.00 0.01 0.01 54 1015.9
20260508224700 59 204 2.0 3.0 0.00 0.01 0.01 53 1016.0
20260508224157 59 302 5.0 7.0 0.00 0.01 0.01 53 1015.9
20260508223655 59 298 2.0 2.0 0.00 0.01 0.01 53 1016.0
20260508223152 59 216 1.0 2.0 0.00 0.01 0.01 54 1015.8
20260508222650 59 183 0.0 0.0 0.00 0.01 0.01 54 1015.8
20260508222147 59 196 1.0 2.0 0.00 0.01 0.01 54 1016.0
20260508221643 60 231 4.0 7.0 0.00 0.01 0.01 52 1015.8
20260508221138 61 217 1.0 2.0 0.00 0.01 0.01 51 1015.8
20260508220636 61 217 1.0 2.0 0.00 0.01 0.01 51 1015.8
20260508220132 60 134 2.0 3.0 0.00 0.01 0.01 53 1015.8
20260508215628 60 25 4.0 4.0 0.00 0.01 0.01 53 1015.9
20260508215125 60 193 4.0 4.0 0.00 0.01 0.01 51 1015.9
20260508214622 60 207 2.0 2.0 0.00 0.01 0.01 52 1015.7
20260508214119 60 277 2.0 3.0 0.00 0.01 0.01 54 1015.8
20260508213616 58 282 2.0 2.0 0.00 0.01 0.01 57 1016.1
20260508213112 58 233 2.0 2.0 0.00 0.01 0.01 57 1016.4
20260508212609 58 174 1.0 2.0 0.00 0.01 0.01 57 1016.2
20260508212105 58 285 4.0 4.0 0.00 0.01 0.01 57 1016.3
20260508211601 58 292 2.0 3.0 0.00 0.01 0.01 56 1016.3
20260508211057 59 329 3.0 3.0 0.00 0.01 0.01 56 1016.4
20260508210554 59 292 4.0 4.0 0.00 0.01 0.01 55 1016.3
20260508210051 58 228 1.0 1.0 0.00 0.01 0.01 56 1016.3
20260508205548 59 12 3.0 3.0 0.00 0.01 0.01 56 1016.3
20260508205044 59 153 2.0 3.0 0.00 0.01 0.01 56 1016.3
20260508204541 59 309 3.0 3.0 0.00 0.01 0.01 55 1016.1
20260508204037 59 279 3.0 4.0 0.00 0.01 0.01 55 1016.2
20260508203533 59 184 3.0 4.0 0.00 0.01 0.01 55 1016.2
20260508203029 58 22 3.0 3.0 0.00 0.01 0.01 55 1016.0
20260508202526 58 324 4.0 6.0 0.00 0.01 0.01 55 1016.0
20260508202023 59 341 3.0 4.0 0.00 0.01 0.01 54 1016.2
20260508201520 59 354 2.0 3.0 0.00 0.01 0.01 54 1016.1